Tracking 21998 objects as of 1-Dec-2020
HD Live streaming from Space Station
objects crossing your sky now

SCOUT A-1 R/B

Track SCOUT A-1 R/B now!
10-day predictions


NORAD ID: 6910
Int'l Code: 1973-081B
Perigee: 893.9 km
Apogee: 1,125.5 km
Inclination: 89.8 °
Period: 105.2 minutes
Semi major axis: 7380 km
RCS: 0.6465 m2 (medium)
Launch date: October 30, 1973
Source: United States (US)
Launch site: AIR FORCE WESTERN TEST RANGE (AFWTR)

Note: This is a ROCKET BODY
aabbcc
Your satellite tracking list
Your tracking list is empty




NASA's NSSDC Master Catalog

Two Line Element Set (TLE):
1  6910U 73081B   20335.58528555 -.00000009 +00000-0 -19172-4 0  9996
2  6910 089.8108 285.5602 0156941 240.3590 118.1864 13.69171171349742
Source of the keplerian elements: AFSPC